Regional Weather Roundup
Issued by NWS Glasgow, MT

Home | Current Version | Previous Version | Text Only | Print | Product List | Glossary On
Versions: 1 2 3 4 5 6 7 8 9 10 11 12 13 14 15 16 17 18 19 20 21 22 23 24 25 26 27 28 29 30 31 32 33 34 35 36 37 38 39 40 41 42 43 44 45 46 47 48 49 50
731
ASUS45 KGGW 140615
RWRGGW
HOURLY REGIONAL WEATHER ROUNDUP FOR NORTHEAST MONTANA
NATIONAL WEATHER SERVICE GLASGOW MONTANA
1100 PM MST SAT FEB 13 2016

NOTE: "FAIR" INDICATES FEW OR NO CLOUDS BELOW 12,000 FEET WITH NO
SIGNIFICANT WEATHER AND/OR OBSTRUCTIONS TO VISISBILITY.

NORTHEAST MONTANA


CITY           SKY/WX    TMP DP  RH WIND       PRES   REMARKS
GLASGOW        CLEAR     30  27  88 SW6       29.85F
6HR MIN TEMP:  30; 6HR MAX TEMP:  39;

PLENTYWOOD       N/A     30  29  96 NW15G23     N/A
WOLF POINT     CLEAR     32  29  88 W5        29.85F
JORDAN           N/A     32  28  85 W9        29.88F
WINNETT          N/A     31  26  82 CALM        N/A
SIDNEY         CLOUDY    34  28  80 NW10      29.84F
GLENDIVE       CLEAR     34  30  86 W16       29.87R
MALTA            N/A     32  30  93 SW8         N/A
SCOBEY           N/A     33  22  64 W17       29.80S

FORT PECK REPORTS


CITY           SKY/WX    TMP DP  RH WIND       PRES   REMARKS
FORT PECK        N/A     34  32  92 W8          N/A
THE PINES        N/A     37  30  75 W7          N/A

SOUTHEAST MONTANA


CITY           SKY/WX    TMP DP  RH WIND       PRES   REMARKS
BILLINGS       CLOUDY    35  18  49 NE3       29.97F
MILES CITY     PTCLDY    34  28  79 CALM      29.92F
BAKER          CLEAR     34  29  82 W22       29.85S
LIVINGSTON     CLOUDY    40  15  36 SW26G35   29.95F

CENTRAL MONTANA


CITY           SKY/WX    TMP DP  RH WIND       PRES   REMARKS
HAVRE          CLEAR     31  24  75 VRB5      29.90F
LEWISTOWN      CLOUDY    30  20  66 SW7       29.93F
GREAT FALLS    CLOUDY    39  22  50 SW17      29.92F
CUT BANK       CLOUDY    36  23  59 W17       29.86F
HELENA         CLOUDY    37  20  50 SW8       30.01F
BUTTE          CLOUDY    33  19  56 CALM      30.03F
BOZEMAN        CLOUDY    34  23  64 SE3       30.02F

WESTERN MONTANA


CITY           SKY/WX    TMP DP  RH WIND       PRES   REMARKS
MISSOULA       CLOUDY    37  27  67 CALM      30.07F
KALISPELL      NOT AVBL

NORTH DAKOTA


CITY           SKY/WX    TMP DP  RH WIND       PRES   REMARKS
WILLISTON      CLOUDY    28  23  81 NW9       29.82S
DICKINSON      CLOUDY    32  29  88 NW20G28   29.76S
MINOT          LGT SNOW  19  12  74 SE6       29.77F
BISMARCK       CLOUDY    19  15  84 SE9       29.82F FOG

SOUTHERN SASKATCHEWAN


CITY           SKY/WX    TMP DP  RH WIND       PRES   REMARKS
REGINA         CLOUDY    21  18  86 NW12      29.75F
ESTEVAN        NOT AVBL
SWIFT CURRENT  CLEAR     25  23  93 W15       29.77F





USA.gov is the U.S. government's official web portal to all federal, state and local government web resources and services.